KOSEN 1
1 49402U 21102H   25324.56654323  .00007531  00000-0  32136-3 0  9999
2 49402  97.3502   5.9237 0013735 218.8998 141.1252 15.23105232222227
HO-113
1 50466U 21131B   25324.84845911  .00000708  00000-0  23374-3 0  9992
2 50466  98.5067  53.3798 0004223  19.3744 340.7604 14.41069314205107
SNUGLITE 2
1 52899U 22065F   25324.65467618  .00001478  00000-0  29278-3 0  9998
2 52899  98.1917 105.3154 0006772 325.7005  34.3759 14.63745434180486
UmKA 1 (RS40S)
1 57172U 23091G   25324.72481458  .00006279  00000-0  31354-3 0  9995
2 57172  97.5373  19.2889 0014931 122.7562 237.5112 15.17747472132358
CubeBel-2 (EU11S)
1 57175U 23091K   25324.78534810  .00011989  00000-0  50781-3 0  9994
2 57175  97.5372  21.6465 0012240 125.3735 234.8647 15.23244808132512
SONATE-2
1 59112U 24043Q   25324.62113347  .00025263  00000-0  56415-3 0  9996
2 59112  97.5329 100.0771 0008765 243.7895 116.2451 15.43485371 95561
MO-122
1 60209U 24125G   25324.57740780  .00029182  00000-0  62905-3 0  9992
2 60209  97.2544 174.9606 0013581 267.0135  92.9559 15.44443220 77186
GRBBeta
1 60237U 24128C   25324.75364306  .00004559  00000-0  32800-3 0  9994
2 60237  61.9903 226.4505 0056955  92.1609 268.6006 15.04458557 74888
Curium One
1 60242U 24128H   25324.45858266  .00009311  00000-0  58803-3 0  9992
2 60242  61.9795 222.8722 0056621  89.0455 271.7125 15.08339987 74929
ROBUSTA-3A
1 60243U 24128J   25324.71804762  .00009127  00000-0  58623-3 0  9999
2 60243  61.9869 223.3983 0056535  86.5098 274.2459 15.07745915 74947
CatSat
1 60246U 24125J   25324.31399418  .00035947  00000-0  92867-3 0  9999
2 60246  97.2348 171.9699 0033772 227.0726 132.7685 15.38444008 75071
HYPERVIEW-1G (RS66S)
1 61772U 24199AP  25324.87456875  .00039278  00000-0  81435-3 0  9997
2 61772  97.3233 194.0706 0009971 333.2785  26.7949 15.45577154102235
AO-123
1 61781U 24199AY  25324.85146235  .00009320  00000-0  30953-3 0  9995
2 61781  97.3268 190.5484 0014436 341.8434  18.2290 15.31329658101991
ZIMSAT 2
1 61783U 24199BA  25324.84547618  .00135729  00000-0  14050-2 0  9998
2 61783  97.3137 196.8755 0005778 337.2595  22.8408 15.64256819105578
HADES-R (SO-124)
1 62690U 25009CK  25324.17583354  .00121739  00000-0  20468-2 0  9996
2 62690  97.3928  46.0654 0002908 240.3586 119.7377 15.51310091 47276
HYDRA-T
1 62692U 25009CM  25324.17471898  .00110733  00000-0  17928-2 0  9996
2 62692  97.3922  46.2185 0002658 240.4524 119.6464 15.52411474 47283
JINJUSat 1B
1 63210U 25052A   25324.68994763  .00014940  00000-0  58801-3 0  9997
2 63210  97.4209 216.9985 0006044  95.7408 264.4520 15.25712710 38221
NUSHSAT 1
1 63211U 25052B   25324.24042737  .00018341  00000-0  70208-3 0  9999
2 63211  97.4195 216.6460 0005984  98.9637 261.2280 15.26595138 38167
TEVEL2-4
1 63213U 25052D   25324.42870568  .00016924  00000-0  65987-3 0  9995
2 63213  97.4115 216.4300 0004879 107.5601 252.6171 15.26004695 38180
TEVEL2-5
1 63214U 25052E   25324.43316140  .00016812  00000-0  65676-3 0  9999
2 63214  97.4114 216.4249 0004903 107.5651 252.6123 15.25941935 38188
TEVEL2-6
1 63215U 25052F   25324.43977521  .00017203  00000-0  67290-3 0  9995
2 63215  97.4116 216.4205 0004920 108.1140 252.0635 15.25894090 38183
TEVEL2-1
1 63217U 25052H   25324.28108078  .00016511  00000-0  65206-3 0  9999
2 63217  97.4089 216.0926 0004658 117.5169 242.6543 15.25582191 38159
TEVEL2-3
1 63218U 25052J   25324.67411269  .00015911  00000-0  62799-3 0  9999
2 63218  97.4089 216.4863 0004684 117.6279 242.5436 15.25611622 38215
TEVEL2-2
1 63219U 25052K   25324.28186317  .00016359  00000-0  64610-3 0  9991
2 63219  97.4088 216.0933 0004659 119.1792 240.9912 15.25583556 38156
TEVEL2-9
1 63237U 25052AD  25324.42024284  .00015482  00000-0  63801-3 0  9998
2 63237  97.4156 215.9677 0007873 144.2198 215.9569 15.24148626 38148
TEVEL2-7
1 63238U 25052AE  25324.43207582  .00015369  00000-0  63591-3 0  9994
2 63238  97.4156 215.9579 0007900 144.5124 215.6640 15.24014064 38148
TEVEL2-8
1 63239U 25052AF  25324.24034641  .00015688  00000-0  64966-3 0  9999
2 63239  97.4154 215.7536 0007824 146.2554 213.9183 15.23981104 38116
HYDRA-W
1 63490U 25052BL  25324.21024714  .00062906  00000-0  16913-2 0  9998
2 63490  97.4076 217.7354 0009907 131.2476 228.9624 15.37623755 38250
HADES-ICM (SO-125)
1 63492U 25052BN  25324.50543134  .00049603  00000-0  14026-2 0  9996
2 63492  97.4091 217.8202 0010176 134.0822 226.1261 15.36113954 38282
Dragonfly
1 65729U 98067XH  25324.49519299  .00113256  00000-0  11320-2 0  9990
2 65729  51.6284 249.0015 0005769 156.4903 203.6356 15.64722952  9673
RSP-03
1 65732U 98067XL  25324.20491880  .00102651  00000-0  11069-2 0  9995
2 65732  51.6298 250.8143 0006768 132.4175 227.7392 15.62832054  9635
GHS-01
1 65733U 98067XM  25324.79401976  .00129313  00000-0  12173-2 0  9998
2 65733  51.6297 247.2504 0006328 155.4040 204.7259 15.66156450  9735
BOTAN
1 65942U 98067XP  25324.17174389  .00079956  00000-0  10467-2 0  9998
2 65942  51.6307 252.8426 0004686 107.1846 252.9659 15.57884657  6347
CEVROSAT1
1 98526C 25248E   25306.26352486  .00003971  00000+0  19360-3 0    07
2 98526  45.4084 255.8570 0001315 254.8982 118.2631 15.17600497    10
